Weather History for Auburn-Lewiston, ME

Change the Weather History Date:

Thursday, March 6, 2014

  Actual Average Record
Temperature  
Mean Temperature 13 °F -  
Max Temperature 33 °F 34 °F 48 °F (2004)
Min Temperature -7 °F 17 °F -7 °F (2014)
Degree Days  
Heating Degree Days 52    
Moisture  
Dew Point -12 °F    
Average Humidity 38    
Maximum Humidity 84    
Minimum Humidity 12    
Precipitation  
Precipitation 0.00 in - - ()
Sea Level Pressure  
Sea Level Pressure 30.52 in    
Wind  
Wind Speed 2 mph (SSE)    
Max Wind Speed 7 mph    
Max Gust Speed -    
Visibility 10 miles    
Events      
Averages and records for this station are not official NWS values.
T = Trace of Precipitation, MM = Missing Value Source: NWS Daily Summary

Daily Weather History Graph

Daily Weather History Graph

Search for Another Location

Airport:

Trip Planner

Search our weather history database for the weather conditions in past years. The results will help you decide how hot, cold, wet, or windy it might be!

Date:

Astronomy

Mar. 06, 2014 Rise Set
Actual Time 6:09 AM EST 5:35 PM EST
Civil Twilight 5:40 AM EST 6:04 PM EST
Nautical Twilight 5:07 AM EST 6:38 PM EST
Astronomical Twilight 4:33 AM EST 7:11 PM EST
Moon 9:03 AM EST (3/6) 11:51 PM EST (3/6)
Length of Visible Light 12h 24m
Length of Day
11h 26m
Waxing Crescent, 32% of the Moon is Illuminated
Mar 6
Waxing Crescent
Mar 8
First Quarter
Mar 16
Full
Mar 23
Last Quarter
Mar 30
New

Hourly Weather History & Observations

Time (EST) Temp. Windchill Dew Point Humidity Pressure Visibility Wind Dir Wind Speed Gust Speed Precip Events Conditions
12:15 AM 8.6 °F -2.6 °F -7.6 °F 48% 30.49 in 10.0 mi North 6.9 mph - N/A   Clear
12:35 AM 8.6 °F -1.3 °F -7.6 °F 48% 30.50 in 10.0 mi NNW 5.8 mph - N/A   Clear
12:55 AM 6.8 °F - -9.4 °F 48% 30.50 in 10.0 mi Calm Calm - N/A   Clear
1:15 AM 5.0 °F - -9.4 °F 52% 30.50 in 10.0 mi Calm Calm - N/A   Clear
1:35 AM 5.0 °F - -7.6 °F 56% 30.50 in 10.0 mi Calm Calm - N/A   Clear
1:55 AM 3.2 °F - -7.6 °F 61% 30.50 in 10.0 mi Calm Calm - N/A   Clear
2:15 AM 5.0 °F - -7.6 °F 56% 30.50 in 10.0 mi Calm Calm - N/A   Clear
2:35 AM 3.2 °F - -14.8 °F 43% 30.49 in 10.0 mi Calm Calm - N/A   Clear
2:55 AM 3.2 °F - -9.4 °F 56% 30.49 in 10.0 mi Calm Calm - N/A   Clear
3:15 AM 1.4 °F -6.2 °F -14.8 °F 47% 30.49 in 10.0 mi SSE 3.5 mph - N/A   Clear
3:35 AM -2.2 °F - -18.4 °F 46% 30.50 in 10.0 mi Calm Calm - N/A   Clear
3:55 AM -2.2 °F - -11.2 °F 66% 30.51 in 10.0 mi Calm Calm - N/A   Clear
4:15 AM -2.2 °F - -11.2 °F 66% 30.51 in 10.0 mi Calm Calm - N/A   Clear
4:35 AM -2.2 °F - -13.0 °F 60% 30.52 in 10.0 mi Calm Calm - N/A   Clear
4:55 AM -5.8 °F - -20.2 °F 50% 30.52 in 10.0 mi Calm Calm - N/A   Clear
5:15 AM -5.8 °F - -14.8 °F 65% 30.53 in 10.0 mi Calm Calm - N/A   Clear
5:35 AM -7.6 °F - -16.6 °F 65% 30.55 in 10.0 mi Calm Calm - N/A   Clear
5:55 AM -7.6 °F - -20.2 °F 54% 30.54 in 10.0 mi Calm Calm - N/A   Clear
6:15 AM -5.8 °F - -9.4 °F 84% 30.55 in 10.0 mi Calm Calm - N/A   Clear
6:35 AM -7.6 °F - -20.2 °F 54% 30.56 in 10.0 mi Calm Calm - N/A   Clear
6:55 AM -7.6 °F - -14.8 °F 71% 30.57 in 10.0 mi Calm Calm - N/A   Clear
7:15 AM -5.8 °F - -9.4 °F 84% 30.57 in 10.0 mi Calm Calm - N/A   Clear
7:35 AM -2.2 °F - -11.2 °F 66% 30.58 in 10.0 mi Calm Calm - N/A   Clear
7:55 AM -0.4 °F -8.3 °F -13.0 °F 55% 30.59 in 10.0 mi NNE 3.5 mph - N/A   Clear
8:15 AM 1.4 °F - - N/A% 30.60 in 10.0 mi Calm Calm - N/A   Clear
8:35 AM 6.8 °F -0.1 °F -13.0 °F 40% 30.60 in 10.0 mi North 3.5 mph - N/A   Clear
8:55 AM 8.6 °F 2.0 °F -14.8 °F 34% 30.60 in 10.0 mi NNE 3.5 mph - N/A   Clear
9:15 AM 10.4 °F - -16.6 °F 29% 30.60 in 10.0 mi Calm Calm - N/A   Clear
9:35 AM 12.2 °F - -16.6 °F 27% 30.61 in 10.0 mi Calm Calm - N/A   Clear
9:55 AM 14.0 °F - -18.4 °F 22% 30.60 in 10.0 mi Calm Calm - N/A   Clear
10:15 AM 19.4 °F - -14.8 °F 21% 30.60 in 10.0 mi Calm Calm - N/A   Clear
10:35 AM 15.8 °F 8.6 °F -18.4 °F 21% 30.59 in 10.0 mi NE 4.6 mph - N/A   Clear
10:55 AM 17.6 °F - -18.4 °F 19% 30.58 in 10.0 mi Calm Calm - N/A   Clear
11:15 AM 19.4 °F - -14.8 °F 21% 30.58 in 10.0 mi Calm Calm - N/A   Clear
11:35 AM 19.4 °F - -14.8 °F 21% 30.58 in 10.0 mi Calm Calm - N/A   Clear
11:55 AM 26.6 °F - -11.2 °F 19% 30.57 in 10.0 mi Calm Calm - N/A   Clear
12:15 PM 21.2 °F - -18.4 °F 17% 30.57 in 10.0 mi Calm Calm - N/A   Clear
12:35 PM 26.6 °F 22.6 °F -14.8 °F 16% 30.56 in 10.0 mi SSE 3.5 mph - N/A   Clear
12:55 PM 24.8 °F 20.5 °F -14.8 °F 17% 30.55 in 10.0 mi SSE 3.5 mph - N/A   Clear
1:15 PM 26.6 °F - -14.8 °F 16% 30.53 in 10.0 mi Calm Calm - N/A   Clear
1:35 PM 28.4 °F - -16.6 °F 13% 30.52 in 10.0 mi Calm Calm - N/A   Clear
1:55 PM 28.4 °F 23.3 °F -14.8 °F 15% 30.51 in 10.0 mi ENE 4.6 mph - N/A   Clear
2:15 PM 33.8 °F - -14.8 °F 12% 30.51 in 10.0 mi Calm Calm - N/A   Clear
2:35 PM 32.0 °F - -14.8 °F 13% 30.52 in 10.0 mi Calm Calm - N/A   Clear
2:55 PM 33.8 °F - -14.8 °F 12% 30.51 in 10.0 mi Calm Calm - N/A   Clear
3:15 PM 32.0 °F - -16.6 °F 12% 30.51 in 10.0 mi Calm Calm - N/A   Clear
3:35 PM 30.2 °F 26.7 °F -16.6 °F 13% 30.50 in 10.0 mi South 3.5 mph - N/A   Clear
3:55 PM 30.2 °F 25.4 °F -16.6 °F 13% 30.50 in 10.0 mi SSW 4.6 mph - N/A   Clear
4:15 PM 32.0 °F 28.7 °F -14.8 °F 13% 30.50 in 10.0 mi SW 3.5 mph - N/A   Clear
4:35 PM 30.2 °F 23.4 °F -16.6 °F 13% 30.50 in 10.0 mi SW 6.9 mph - N/A   Clear
4:55 PM 28.4 °F 22.2 °F -16.6 °F 13% 30.50 in 10.0 mi SSW 5.8 mph - N/A   Clear
5:15 PM 28.4 °F 23.3 °F -14.8 °F 15% 30.50 in 10.0 mi South 4.6 mph - N/A   Clear
5:35 PM 26.6 °F 22.6 °F -14.8 °F 16% 30.50 in 10.0 mi South 3.5 mph - N/A   Clear
5:55 PM 26.6 °F 22.6 °F -14.8 °F 16% 30.50 in 10.0 mi South 3.5 mph - N/A   Clear
6:15 PM 26.6 °F 21.2 °F -14.8 °F 16% 30.49 in 10.0 mi SSE 4.6 mph - N/A   Clear
6:35 PM 26.6 °F 21.2 °F -14.8 °F 16% 30.49 in 10.0 mi SSE 4.6 mph - N/A   Clear
6:55 PM 21.2 °F - -16.6 °F 18% 30.49 in 10.0 mi Calm Calm - N/A   Clear
7:15 PM 19.4 °F - -9.4 °F 28% 30.49 in 10.0 mi Calm Calm - N/A   Clear
7:35 PM 19.4 °F - -9.4 °F 28% 30.49 in 10.0 mi Calm Calm - N/A   Clear
7:55 PM 19.4 °F 11.5 °F -7.6 °F 30% 30.49 in 10.0 mi SSE 5.8 mph - N/A   Clear
8:15 PM 15.8 °F 6.1 °F -7.6 °F 35% 30.49 in 10.0 mi SSE 6.9 mph - N/A   Clear
8:35 PM 21.2 °F 13.6 °F -5.8 °F 30% 30.50 in 10.0 mi South 5.8 mph - N/A   Clear
8:55 PM 17.6 °F - -5.8 °F 35% 30.50 in 10.0 mi Calm Calm - N/A   Clear
9:15 PM 15.8 °F - -5.8 °F 38% 30.50 in 10.0 mi Calm Calm - N/A   Clear
9:35 PM 14.0 °F - 1.4 °F 57% 30.50 in 10.0 mi Calm Calm - N/A   Clear
9:55 PM 10.4 °F - -9.4 °F 41% 30.49 in 10.0 mi Calm Calm - N/A   Clear
10:15 PM 12.2 °F - 1.4 °F 62% 30.48 in 10.0 mi Calm Calm - N/A   Clear
10:35 PM 8.6 °F - -7.6 °F 48% 30.49 in 10.0 mi Calm Calm - N/A   Clear
10:55 PM 10.4 °F - 1.4 °F 67% 30.48 in 10.0 mi Calm Calm - N/A   Clear
11:15 PM 6.8 °F - -4.0 °F 61% 30.47 in 10.0 mi Calm Calm - N/A   Clear
11:35 PM 8.6 °F - -2.2 °F 62% 30.47 in 10.0 mi Calm Calm - N/A   Clear
11:55 PM 8.6 °F - -0.4 °F 67% 30.46 in 10.0 mi Calm Calm - N/A   Clear